Skip Page Navigation
NASA JPL Caltech
NASA Logo - Jet Propulsion Laboratory + View the NASA Portal
+ Near-Earth Object (NEO) Program
Search JPL
JPL Home Earth Solar System Stars & Galaxies Technology
JPL Solar System Dynamics
BODIES ORBITS EPHEMERIDES TOOLS PHYSICAL DATA DISCOVERY FAQ SITE MAP
JPL Small-Body Database Browser
Search: [ help ]  
(2012 HJ1)
Classification: Apollo [NEO, PHA]          SPK-ID: 3602685
Ephemeris | Orbit Diagram | Orbital Elements | Physical Parameters | Close-Approach Data ]

[ hide orbit diagram ]
Orbit Diagram
Note: Make sure you have Java enabled on your browser to see the applet. This applet is provided as a 3D orbit visualization tool. The applet was implemented using 2-body methods, and hence should not be used for determining accurate long-term trajectories (over several years or decades) or planetary encounter circumstances. For accurate long-term ephemerides, please instead use our Horizons system.
Orbit Viewer

Additional Notes: the orbits shown in the applet are color coded. The planets are white lines, and the asteroid/comet is a blue line. The bright white line indicates the portion of the orbit that is above the ecliptic plane, and the darker portion is below the ecliptic plane. Likewise for the asteroid/comet orbit, the light blue indicates the portion above the ecliptic plane, and the dark blue the portion below the ecliptic plane.

Orbit Viewer applet originally written and kindly provided by Osamu Ajiki (AstroArts), and further modified by Ron Baalke (JPL).


Orbital Elements at Epoch 2456400.5 (2013-Apr-18.0) TDB
Reference: JPL 52 (heliocentric ecliptic J2000)
 Element Value Uncertainty (1-sigma)   Units 
e .6070619857841255 9.3e-07  
a 2.002598804394133 3.9102e-06 AU
q .7868971974697152 3.3743e-07 AU
i 31.27483239187073 3.4517e-05 deg
node 44.76646763890751 1.3304e-05 deg
peri 291.161799320709 2.064e-05 deg
M 79.47378526329508 0.00023526 deg
tp 2456171.987083370882
(2012-Sep-01.48708337)
3.8919e-05 JED
period 1035.116796235905
2.83
0.0030317
8.3e-06
d
yr
n .3477868403924104 1.0186e-06 deg/d
Q 3.218300411318551 6.2839e-06 AU
  Orbit Determination Parameters
   # obs. used (total)      347  
   data-arc span      265 days  
   first obs. used      2012-04-16  
   last obs. used      2013-01-06  
   planetary ephem.      DE405  
   SB-pert. ephem.      SB405-CPV-2  
   condition code      2  
   fit RMS      .37019  
   data source      ORB  
   producer      Otto Matic  
   solution date      2013-Jan-31 00:52:04  

Additional Information
 Earth MOID = .0338824 AU 
 T_jup = 3.441 
[ show covariance matrix ]

Ephemeris | Orbit Diagram | Orbital Elements | Physical Parameters | Close-Approach Data ]

Physical Parameter Table
Parameter Symbol Value Units Sigma Reference Notes
absolute magnitude H 17.911 mag .52737 52 autocmod 2.5b

[ show close-approach data ]
Ephemeris | Orbit Diagram | Orbital Elements | Physical Parameters | Close-Approach Data ]
ABOUT SSD CREDITS/AWARDS PRIVACY/COPYRIGHT GLOSSARY LINKS
FirstGov 2013-May-21 17:10 UT
(server date/time)  
NASA Home Page
Site Manager:   Donald K. Yeomans
Webmaster  Alan B. Chamberlin